Погода в Всходах

Россия / Смоленская область     54°40′07″N   34°05′51″E
темп.,
°C
ветер,
м/с
пор.,
м/с
влажн.,
%
обл.,
%
осадки,
мм/ч
давл.,
гПа
погр.,
м
19 апреля, пн
пн1900:00+4св279799 0.0 1022213
03:00+5ссв379198 0.0 1021258
06:00+5св31190100 0.1 1021474
09:00+7всв4984100 0.1 1021968
12:00+7всв4986100 0.3 10211026
15:00+8в378497 0.5 1021692
18:00+9всв4975100 0.4 10201152
21:00+7всв41084100 0.6 1021920
20 апреля, вт
вт2000:00+5всв51088100 0.0 1020920
03:00+4всв4896100 0.1 1019829
06:00+3всв41096100 0.3 1018534
09:00+1св41197100 2.4 1017447
12:00+3в41197100 0.7 1016648
15:00+4всв41094100 1.1 1015623
18:00+5всв4991100 0.1 1013695
21:00+3св3797100 0.1 1011611
21 апреля, ср
ср2100:00+2с3797100 0.0 1008426
03:00+1ссз3798100 0.6 1006345
06:00+1сз3897100 0.9 1004369
09:00+2зсз4995100 1.1 1004706
12:00+5з4983100 0.1 10051176
15:00+6зюз598577 0.2 1007851
18:00+7зюз487693 0.4 1007961
21:00+5юз289385 1.6 1009454
22 апреля, чт
чт2200:00+3ююз269820 0.3 1010152
03:00+2ююз2698100 0.3 1011146
06:00+3ю249798 0.0 101289
09:00+8ю358319 0.0 1013415
12:00+12ююз476796 0.6 10131263
15:00+12юз3771100 1.6 10131028
18:00+12ююз387815 0.9 1013514
21:00+8ююз249382 1.4 101483
23 апреля, пт
пт2300:00+6ю27945 0.0 1015140
03:00+6ююв38959 0.0 1014159
06:00+6ююв31395100 0.0 1013410
09:00+11ю51281100 0.1 1012842
12:00+14ю6136586 0.8 10101741
15:00+14ююз61370100 3.0 10091832
18:00+5з4791100 3.1 1012669
21:00+3зюз3792100 3.3 1013487